TimeCST,TemperatureF,Dew PointF,Humidity,Sea Level PressureIn,VisibilityMPH,Wind Direction,Wind SpeedMPH,Gust SpeedMPH,PrecipitationIn,Events,Conditions,WindDirDegrees,DateUTC
12:53 AM,32.0,28.9,88,30.22,5.0,NNE,3.5,-,N/A,,Mostly Cloudy,20,2013-01-09 06:53:00
1:36 AM,33.8,30.2,87,30.21,1.8,North,6.9,-,N/A,,Overcast,10,2013-01-09 07:36:00
1:53 AM,33.1,32.0,96,30.22,0.5,North,4.6,-,N/A,Fog,Fog,10,2013-01-09 07:53:00
2:13 AM,33.8,33.8,100,30.22,1.2,Calm,Calm,-,N/A,,Scattered Clouds,0,2013-01-09 08:13:00
2:22 AM,33.8,33.8,100,30.23,2.5,Calm,Calm,-,N/A,,Partly Cloudy,0,2013-01-09 08:22:00
2:43 AM,33.8,30.2,87,30.22,3.0,North,4.6,-,N/A,,Clear,350,2013-01-09 08:43:00
2:48 AM,32.0,30.2,93,30.22,2.5,North,6.9,-,N/A,,Partly Cloudy,350,2013-01-09 08:48:00
2:53 AM,33.1,30.9,92,30.22,3.0,North,8.1,-,N/A,,Partly Cloudy,360,2013-01-09 08:53:00
3:00 AM,33.8,30.2,87,30.22,2.5,North,8.1,-,N/A,,Partly Cloudy,360,2013-01-09 09:00:00
3:15 AM,33.8,32.0,93,30.22,1.0,NNE,4.6,-,N/A,,Mist,20,2013-01-09 09:15:00
3:23 AM,33.8,32.0,93,30.22,0.8,East,3.5,-,N/A,,Mist,90,2013-01-09 09:23:00
3:32 AM,35.6,35.6,100,30.22,2.0,ESE,3.5,-,N/A,,Mostly Cloudy,110,2013-01-09 09:32:00
3:37 AM,37.4,35.6,93,30.23,3.0,ENE,3.5,-,N/A,,Scattered Clouds,70,2013-01-09 09:37:00
3:49 AM,33.8,33.8,100,30.23,1.8,Calm,Calm,-,N/A,,Partly Cloudy,0,2013-01-09 09:49:00
3:50 AM,34.0,33.1,96,30.24,1.5,Calm,Calm,-,N/A,,Partly Cloudy,0,2013-01-09 09:50:00
4:03 AM,33.8,32.0,93,30.23,0.8,North,4.6,-,N/A,,Mist,10,2013-01-09 10:03:00
4:11 AM,33.8,32.0,93,30.23,1.0,NE,3.5,-,N/A,,Clear,40,2013-01-09 10:11:00
4:30 AM,33.8,32.0,93,30.23,0.8,NNW,3.5,-,N/A,,Mist,340,2013-01-09 10:30:00
4:42 AM,33.8,32.0,93,30.23,1.2,North,6.9,-,N/A,,Partly Cloudy,10,2013-01-09 10:42:00
4:53 AM,32.0,30.0,92,30.24,1.5,North,5.8,-,N/A,,Partly Cloudy,360,2013-01-09 10:53:00
5:12 AM,33.8,32.0,93,30.23,0.8,North,4.6,-,N/A,,Mist,360,2013-01-09 11:12:00
5:33 AM,32.0,30.2,93,30.24,1.2,North,5.8,-,N/A,,Scattered Clouds,360,2013-01-09 11:33:00
5:53 AM,33.1,32.0,96,30.27,1.8,NNE,4.6,-,N/A,,Clear,20,2013-01-09 11:53:00
6:00 AM,33.8,33.8,100,30.26,2.5,Calm,Calm,-,N/A,,Clear,0,2013-01-09 12:00:00
6:10 AM,33.8,33.8,100,30.25,3.0,ENE,4.6,-,N/A,,Clear,60,2013-01-09 12:10:00
6:53 AM,33.1,30.9,92,30.28,5.0,North,5.8,-,N/A,,Clear,350,2013-01-09 12:53:00
7:53 AM,33.1,30.9,92,30.33,7.0,NNW,5.8,-,N/A,,Clear,340,2013-01-09 13:53:00
8:53 AM,36.0,32.0,86,30.36,7.0,North,4.6,-,N/A,,Clear,10,2013-01-09 14:53:00
9:53 AM,37.9,33.1,83,30.38,9.0,North,4.6,-,N/A,,Clear,10,2013-01-09 15:53:00
10:53 AM,42.8,32.0,66,30.36,10.0,NE,4.6,-,N/A,,Mostly Cloudy,50,2013-01-09 16:53:00
11:53 AM,50.0,30.9,48,30.35,10.0,ENE,12.7,-,N/A,,Overcast,70,2013-01-09 17:53:00
12:53 PM,54.0,30.9,41,30.32,10.0,NE,13.8,-,N/A,,Overcast,50,2013-01-09 18:53:00
1:53 PM,55.9,30.0,37,30.30,10.0,NE,13.8,-,N/A,,Scattered Clouds,50,2013-01-09 19:53:00
2:53 PM,55.0,30.0,38,30.28,10.0,ENE,12.7,-,N/A,,Clear,60,2013-01-09 20:53:00
3:53 PM,55.0,28.9,37,30.28,10.0,ENE,11.5,-,N/A,,Partly Cloudy,70,2013-01-09 21:53:00
4:53 PM,54.0,30.0,40,30.28,10.0,ENE,9.2,-,N/A,,Scattered Clouds,60,2013-01-09 22:53:00
5:53 PM,53.1,30.9,43,30.27,10.0,NE,12.7,-,N/A,,Mostly Cloudy,50,2013-01-09 23:53:00
6:53 PM,52.0,32.0,47,30.25,10.0,NE,13.8,24.2,N/A,,Overcast,50,2013-01-10 00:53:00
7:53 PM,52.0,33.1,49,30.25,10.0,ENE,16.1,24.2,N/A,,Overcast,60,2013-01-10 01:53:00
8:53 PM,52.0,33.1,49,30.23,10.0,East,13.8,26.5,N/A,,Overcast,80,2013-01-10 02:53:00
9:53 PM,48.9,37.0,64,30.21,10.0,ENE,15.0,24.2,0.00,Rain,Light Rain,70,2013-01-10 03:53:00
10:36 PM,50.0,35.6,58,30.19,10.0,East,19.6,24.2,0.00,,Overcast,80,2013-01-10 04:36:00
10:53 PM,51.1,36.0,56,30.18,10.0,East,17.3,25.3,0.00,Rain,Light Rain,80,2013-01-10 04:53:00
11:53 PM,48.0,37.9,68,30.17,10.0,East,15.0,-,0.00,Rain,Light Rain,80,2013-01-10 05:53:00